Year,Month,Day,Hour,Minute,Value (Times are PST for temperature in C)
2013,12,16,00,00,3.00
2013,12,16,00,01,2.90
2013,12,16,00,02,2.90
2013,12,16,00,03,2.90
2013,12,16,00,04,2.90
2013,12,16,00,05,2.90
2013,12,16,00,06,2.90
2013,12,16,00,07,2.90
2013,12,16,00,08,2.90
2013,12,16,00,09,2.80
2013,12,16,00,10,2.80
2013,12,16,00,11,2.80
2013,12,16,00,12,2.80
2013,12,16,00,13,2.70
2013,12,16,00,14,2.70
2013,12,16,00,15,2.70
2013,12,16,00,16,2.70
2013,12,16,00,17,2.60
2013,12,16,00,18,2.60
2013,12,16,00,19,2.60
2013,12,16,00,20,2.60
2013,12,16,00,21,2.60
2013,12,16,00,22,2.60
2013,12,16,00,23,2.60
2013,12,16,00,24,2.60
2013,12,16,00,25,2.50
2013,12,16,00,26,2.50
2013,12,16,00,27,2.50
2013,12,16,00,28,2.40
2013,12,16,00,29,2.40
2013,12,16,00,30,2.40
2013,12,16,00,31,2.40
2013,12,16,00,32,2.40
2013,12,16,00,33,2.30
2013,12,16,00,34,2.30
2013,12,16,00,35,2.30
2013,12,16,00,36,2.20
2013,12,16,00,37,2.20
2013,12,16,00,38,2.20
2013,12,16,00,39,2.20
2013,12,16,00,40,2.10
2013,12,16,00,41,2.10
2013,12,16,00,42,2.10
2013,12,16,00,43,2.00
2013,12,16,00,44,2.00
2013,12,16,00,45,2.00
2013,12,16,00,46,2.00
2013,12,16,00,47,2.00
2013,12,16,00,48,2.00
2013,12,16,00,49,1.90
2013,12,16,00,50,1.90
2013,12,16,00,51,1.90
2013,12,16,00,52,1.90
2013,12,16,00,53,1.90
2013,12,16,00,54,1.90
2013,12,16,00,55,1.90
2013,12,16,00,56,1.90
2013,12,16,00,57,1.80
2013,12,16,00,58,1.80
2013,12,16,00,59,1.80
2013,12,16,01,00,1.80
2013,12,16,01,01,1.80
2013,12,16,01,02,1.80
2013,12,16,01,03,1.80
2013,12,16,01,04,1.80
2013,12,16,01,05,1.80
2013,12,16,01,06,1.80
2013,12,16,01,07,1.70
2013,12,16,01,08,1.70
2013,12,16,01,09,1.70
2013,12,16,01,10,1.70
2013,12,16,01,11,1.70
2013,12,16,01,12,1.70
2013,12,16,01,13,1.70
2013,12,16,01,14,1.70
2013,12,16,01,15,1.60
2013,12,16,01,16,1.60
2013,12,16,01,17,1.60
2013,12,16,01,18,1.60
2013,12,16,01,19,1.60
2013,12,16,01,20,1.60
2013,12,16,01,21,1.50
2013,12,16,01,22,1.50
2013,12,16,01,23,1.50
2013,12,16,01,24,1.50
2013,12,16,01,25,1.40
2013,12,16,01,26,1.40
2013,12,16,01,27,1.40
2013,12,16,01,28,1.40
2013,12,16,01,29,1.40
2013,12,16,01,30,1.30
2013,12,16,01,31,1.30
2013,12,16,01,32,1.30
2013,12,16,01,33,1.30
2013,12,16,01,34,1.30
2013,12,16,01,35,1.30
2013,12,16,01,36,1.30
2013,12,16,01,37,1.30
2013,12,16,01,38,1.30
2013,12,16,01,39,1.30
2013,12,16,01,40,1.30
2013,12,16,01,41,1.30
2013,12,16,01,42,1.30
2013,12,16,01,43,1.30
2013,12,16,01,44,1.30
2013,12,16,01,45,1.30
2013,12,16,01,46,1.30
2013,12,16,01,47,1.30
2013,12,16,01,48,1.30
2013,12,16,01,49,1.30
2013,12,16,01,50,1.30
2013,12,16,01,51,1.30
2013,12,16,01,52,1.30
2013,12,16,01,53,1.30
2013,12,16,01,54,1.30
2013,12,16,01,55,1.30
2013,12,16,01,56,1.30
2013,12,16,01,57,1.30
2013,12,16,01,58,1.30
2013,12,16,01,59,1.30
2013,12,16,02,00,1.30
2013,12,16,02,01,1.30
2013,12,16,02,02,1.40
2013,12,16,02,03,1.50
2013,12,16,02,04,1.50
2013,12,16,02,05,1.60
2013,12,16,02,06,1.60
2013,12,16,02,07,1.60
2013,12,16,02,08,1.70
2013,12,16,02,09,1.70
2013,12,16,02,10,1.70
2013,12,16,02,11,1.80
2013,12,16,02,12,1.90
2013,12,16,02,13,2.00
2013,12,16,02,14,2.00
2013,12,16,02,15,2.00
2013,12,16,02,16,2.00
2013,12,16,02,17,2.00
2013,12,16,02,18,2.00
2013,12,16,02,19,1.90
2013,12,16,02,20,1.80
2013,12,16,02,21,1.80
2013,12,16,02,22,1.70
2013,12,16,02,23,1.70
2013,12,16,02,24,1.70
2013,12,16,02,25,1.70
2013,12,16,02,26,1.60
2013,12,16,02,27,1.60
2013,12,16,02,28,1.60
2013,12,16,02,29,1.60
2013,12,16,02,30,1.60
2013,12,16,02,31,1.60
2013,12,16,02,32,1.60
2013,12,16,02,33,1.60
2013,12,16,02,34,1.60
2013,12,16,02,35,1.60
2013,12,16,02,36,1.60
2013,12,16,02,37,1.60
2013,12,16,02,38,1.60
2013,12,16,02,39,1.60
2013,12,16,02,40,1.60
2013,12,16,02,41,1.60
2013,12,16,02,42,1.60
2013,12,16,02,43,1.60
2013,12,16,02,44,1.60
2013,12,16,02,45,1.60
2013,12,16,02,46,1.60
2013,12,16,02,47,1.60
2013,12,16,02,48,1.60
2013,12,16,02,49,1.60
2013,12,16,02,50,1.60
2013,12,16,02,51,1.60
2013,12,16,02,52,1.60
2013,12,16,02,53,1.60
2013,12,16,02,54,1.60
2013,12,16,02,55,1.50
2013,12,16,02,56,1.50
2013,12,16,02,57,1.40
2013,12,16,02,58,1.40
2013,12,16,02,59,1.40
2013,12,16,03,00,1.40
2013,12,16,03,01,1.40
2013,12,16,03,02,1.30
2013,12,16,03,06,1.30
2013,12,16,03,07,1.30
2013,12,16,03,08,1.30
2013,12,16,03,09,1.30
2013,12,16,03,10,1.30
2013,12,16,03,11,1.30
2013,12,16,03,12,1.30
2013,12,16,03,13,1.30
2013,12,16,03,14,1.30
2013,12,16,03,15,1.30
2013,12,16,03,16,1.30
2013,12,16,03,17,1.50
2013,12,16,03,18,1.80
2013,12,16,03,19,2.20
2013,12,16,03,20,2.40
2013,12,16,03,21,2.60
2013,12,16,03,22,2.80
2013,12,16,03,23,3.10
2013,12,16,03,24,3.20
2013,12,16,03,25,3.40
2013,12,16,03,26,3.50
2013,12,16,03,27,3.70
2013,12,16,03,28,3.80
2013,12,16,03,29,3.90
2013,12,16,03,30,4.00
2013,12,16,03,31,4.10
2013,12,16,03,32,4.20
2013,12,16,03,33,4.30
2013,12,16,03,34,4.30
2013,12,16,03,35,4.40
2013,12,16,03,36,4.40
2013,12,16,03,37,4.50
2013,12,16,03,38,4.60
2013,12,16,03,39,4.70
2013,12,16,03,40,4.70
2013,12,16,03,41,4.70
2013,12,16,03,42,4.70
2013,12,16,03,43,4.80
2013,12,16,03,44,4.80
2013,12,16,03,45,4.80
2013,12,16,03,46,4.80
2013,12,16,03,47,4.80
2013,12,16,03,48,4.80
2013,12,16,03,49,4.80
2013,12,16,03,50,4.80
2013,12,16,03,51,4.80
2013,12,16,03,52,4.80
2013,12,16,03,53,4.80
2013,12,16,03,54,4.80
2013,12,16,03,55,4.80
2013,12,16,03,56,4.80
2013,12,16,03,57,4.80
2013,12,16,03,58,4.80
2013,12,16,03,59,4.70
2013,12,16,04,00,4.70
2013,12,16,04,01,4.70
2013,12,16,04,02,4.70
2013,12,16,04,03,4.60
2013,12,16,04,04,4.60
2013,12,16,04,05,4.50
2013,12,16,04,06,4.30
2013,12,16,04,07,4.20
2013,12,16,04,08,4.10
2013,12,16,04,09,3.90
2013,12,16,04,10,3.80
2013,12,16,04,11,3.70
2013,12,16,04,12,3.60
2013,12,16,04,13,3.50
2013,12,16,04,14,3.30
2013,12,16,04,15,3.20
2013,12,16,04,16,3.10
2013,12,16,04,17,3.00
2013,12,16,04,18,2.90
2013,12,16,04,19,2.90
2013,12,16,04,20,2.80
2013,12,16,04,21,2.70
2013,12,16,04,22,2.60
2013,12,16,04,23,2.50
2013,12,16,04,24,2.50
2013,12,16,04,25,2.40
2013,12,16,04,26,2.30
2013,12,16,04,27,2.30
2013,12,16,04,28,2.20
2013,12,16,04,29,2.20
2013,12,16,04,30,2.20
2013,12,16,04,31,2.20
2013,12,16,04,32,2.10
2013,12,16,04,33,2.10
2013,12,16,04,34,2.10
2013,12,16,04,35,2.10
2013,12,16,04,36,2.10
2013,12,16,04,37,2.10
2013,12,16,04,38,2.00
2013,12,16,04,39,2.10
2013,12,16,04,40,2.10
2013,12,16,04,41,2.10
2013,12,16,04,42,2.10
2013,12,16,04,43,2.10
2013,12,16,04,44,2.10
2013,12,16,04,45,2.10
2013,12,16,04,46,2.10
2013,12,16,04,47,2.00
2013,12,16,04,48,2.00
2013,12,16,04,49,2.00
2013,12,16,04,50,2.00
2013,12,16,04,51,2.00
2013,12,16,04,52,2.00
2013,12,16,04,53,2.00
2013,12,16,04,54,2.00
2013,12,16,04,55,2.00
2013,12,16,04,56,2.00
2013,12,16,04,57,2.00
2013,12,16,04,58,2.00
2013,12,16,04,59,1.90
2013,12,16,05,00,1.90
2013,12,16,05,01,1.90
2013,12,16,05,02,1.90
2013,12,16,05,03,1.80
2013,12,16,05,04,1.80
2013,12,16,05,05,1.80
2013,12,16,05,06,1.70
2013,12,16,05,07,1.70
2013,12,16,05,08,1.70
2013,12,16,05,09,1.70
2013,12,16,05,10,1.60
2013,12,16,05,11,1.60
2013,12,16,05,12,1.60
2013,12,16,05,13,1.60
2013,12,16,05,14,1.60
2013,12,16,05,15,1.60
2013,12,16,05,16,1.60
2013,12,16,05,17,1.60
2013,12,16,05,18,1.50
2013,12,16,05,19,1.50
2013,12,16,05,20,1.50
2013,12,16,05,21,1.40
2013,12,16,05,22,1.40
2013,12,16,05,23,1.40
2013,12,16,05,24,1.40
2013,12,16,05,25,1.30
2013,12,16,05,26,1.30
2013,12,16,05,27,1.30
2013,12,16,05,28,1.30
2013,12,16,05,29,1.30
2013,12,16,05,30,1.30
2013,12,16,05,31,1.30
2013,12,16,05,32,1.30
2013,12,16,05,33,1.20
2013,12,16,05,34,1.20
2013,12,16,05,35,1.20
2013,12,16,05,36,1.20
2013,12,16,05,37,1.20
2013,12,16,05,38,1.20
2013,12,16,05,39,1.20
2013,12,16,05,40,1.20
2013,12,16,05,41,1.10
2013,12,16,05,42,1.10
2013,12,16,05,43,1.10
2013,12,16,05,44,1.10
2013,12,16,05,45,1.10
2013,12,16,05,46,1.10
2013,12,16,05,47,1.10
2013,12,16,05,48,1.10
2013,12,16,05,49,1.00
2013,12,16,05,50,1.00
2013,12,16,05,51,1.00
2013,12,16,05,52,1.00
2013,12,16,05,53,0.90
2013,12,16,05,54,0.90
2013,12,16,05,55,0.90
2013,12,16,05,56,0.90
2013,12,16,05,57,0.90
2013,12,16,05,58,0.80
2013,12,16,05,59,0.80
2013,12,16,06,00,0.80
2013,12,16,06,01,0.80
2013,12,16,06,02,0.80
2013,12,16,06,03,0.80
2013,12,16,06,04,0.70
2013,12,16,06,05,0.70
2013,12,16,06,06,0.70
2013,12,16,06,07,0.70
2013,12,16,06,08,0.70
2013,12,16,06,09,0.60
2013,12,16,06,10,0.60
2013,12,16,06,11,0.60
2013,12,16,06,12,0.60
2013,12,16,06,13,0.50
2013,12,16,06,14,0.50
2013,12,16,06,15,0.50
2013,12,16,06,16,0.50
2013,12,16,06,17,0.50
2013,12,16,06,18,0.50
2013,12,16,06,19,0.50
2013,12,16,06,20,0.50
2013,12,16,06,21,0.50
2013,12,16,06,22,0.50
2013,12,16,06,23,0.50
2013,12,16,06,24,0.40
2013,12,16,06,25,0.40
2013,12,16,06,26,0.40
2013,12,16,06,27,0.40
2013,12,16,06,28,0.50
2013,12,16,06,29,0.40
2013,12,16,06,30,0.40
2013,12,16,06,31,0.40
2013,12,16,06,32,0.40
2013,12,16,06,33,0.40
2013,12,16,06,34,0.40
2013,12,16,06,35,0.40
2013,12,16,06,36,0.40
2013,12,16,06,37,0.40
2013,12,16,06,38,0.40
2013,12,16,06,39,0.40
2013,12,16,06,40,0.40
2013,12,16,06,41,0.40
2013,12,16,06,42,0.40
2013,12,16,06,43,0.40
2013,12,16,06,44,0.40
2013,12,16,06,45,0.40
2013,12,16,06,46,0.40
2013,12,16,06,47,0.40
2013,12,16,06,48,0.40
2013,12,16,06,49,0.40
2013,12,16,06,50,0.40
2013,12,16,06,51,0.30
2013,12,16,06,52,0.30
2013,12,16,06,53,0.30
2013,12,16,06,54,0.30
2013,12,16,06,55,0.30
2013,12,16,06,56,0.30
2013,12,16,06,57,0.30
2013,12,16,06,58,0.30
2013,12,16,06,59,0.30
2013,12,16,07,00,0.20
2013,12,16,07,01,0.20
2013,12,16,07,02,0.20
2013,12,16,07,03,0.20
2013,12,16,07,04,0.20
2013,12,16,07,05,0.20
2013,12,16,07,06,0.20
2013,12,16,07,07,0.20
2013,12,16,07,08,0.20
2013,12,16,07,09,0.20
2013,12,16,07,10,0.10
2013,12,16,07,11,0.10
2013,12,16,07,12,0.10
2013,12,16,07,13,0.10
2013,12,16,07,14,0.10
2013,12,16,07,15,0.10
2013,12,16,07,16,0.10
2013,12,16,07,17,0.10
2013,12,16,07,18,0.10
2013,12,16,07,19,0.10
2013,12,16,07,20,0.10
2013,12,16,07,21,0.10
2013,12,16,07,22,0.10
2013,12,16,07,23,0.10
2013,12,16,07,24,0.10
2013,12,16,07,25,0.10
2013,12,16,07,26,0.10
2013,12,16,07,27,0.10
2013,12,16,07,28,0.10
2013,12,16,07,29,0.10
2013,12,16,07,30,0.10
2013,12,16,07,31,0.10
2013,12,16,07,32,0.10
2013,12,16,07,33,0.10
2013,12,16,07,34,0.00
2013,12,16,07,35,0.00
2013,12,16,07,36,0.00
2013,12,16,07,37,-0.10
2013,12,16,07,38,-0.10
2013,12,16,07,39,-0.10
2013,12,16,07,40,-0.10
2013,12,16,07,41,-0.10
2013,12,16,07,42,-0.20
2013,12,16,07,43,-0.20
2013,12,16,07,44,-0.20
2013,12,16,07,45,-0.20
2013,12,16,07,46,-0.20
2013,12,16,07,47,-0.10
2013,12,16,07,48,-0.10
2013,12,16,07,49,-0.10
2013,12,16,07,50,-0.10
2013,12,16,07,51,-0.10
2013,12,16,07,52,-0.10
2013,12,16,07,53,-0.10
2013,12,16,07,54,-0.10
2013,12,16,07,55,-0.10
2013,12,16,07,56,-0.10
2013,12,16,07,57,0.00
2013,12,16,07,58,0.00
2013,12,16,07,59,0.00
2013,12,16,08,00,0.00
2013,12,16,08,01,0.00
2013,12,16,08,02,0.00
2013,12,16,08,03,0.00
2013,12,16,08,04,0.00
2013,12,16,08,05,0.00
2013,12,16,08,06,0.00
2013,12,16,08,07,-0.10
2013,12,16,08,08,-0.10
2013,12,16,08,09,-0.10
2013,12,16,08,10,-0.10
2013,12,16,08,11,-0.10
2013,12,16,08,12,-0.10
2013,12,16,08,13,-0.10
2013,12,16,08,14,-0.10
2013,12,16,08,15,-0.10
2013,12,16,08,16,-0.10
2013,12,16,08,17,-0.10
2013,12,16,08,18,-0.10
2013,12,16,08,19,-0.20
2013,12,16,08,20,-0.20
2013,12,16,08,21,-0.20
2013,12,16,08,22,-0.20
2013,12,16,08,23,-0.20
2013,12,16,08,24,-0.20
2013,12,16,08,25,-0.20
2013,12,16,08,26,-0.20
2013,12,16,08,27,-0.20
2013,12,16,08,28,-0.20
2013,12,16,08,29,-0.20
2013,12,16,08,30,-0.20
2013,12,16,08,31,-0.20
2013,12,16,08,32,-0.20
2013,12,16,08,33,-0.20
2013,12,16,08,34,-0.20
2013,12,16,08,35,-0.20
2013,12,16,08,36,-0.20
2013,12,16,08,37,-0.20
2013,12,16,08,38,-0.20
2013,12,16,08,39,-0.20
2013,12,16,08,40,-0.10
2013,12,16,08,41,-0.10
2013,12,16,08,42,-0.10
2013,12,16,08,43,-0.10
2013,12,16,08,44,0.00
2013,12,16,08,45,0.00
2013,12,16,08,46,0.00
2013,12,16,08,47,0.00
2013,12,16,08,48,0.10
2013,12,16,08,49,0.10
2013,12,16,08,50,0.10
2013,12,16,08,51,0.10
2013,12,16,08,52,0.10
2013,12,16,08,53,0.10
2013,12,16,08,54,0.10
2013,12,16,08,55,0.10
2013,12,16,08,56,0.10
2013,12,16,08,57,0.10
2013,12,16,08,58,0.10
2013,12,16,08,59,0.10
2013,12,16,09,00,0.10
2013,12,16,09,01,0.10
2013,12,16,09,02,0.10
2013,12,16,09,03,0.10
2013,12,16,09,04,0.20
2013,12,16,09,05,0.20
2013,12,16,09,06,0.20
2013,12,16,09,07,0.20
2013,12,16,09,08,0.20
2013,12,16,09,09,0.20
2013,12,16,09,10,0.20
2013,12,16,09,11,0.20
2013,12,16,09,12,0.20
2013,12,16,09,13,0.20
2013,12,16,09,14,0.30
2013,12,16,09,15,0.30
2013,12,16,09,16,0.30
2013,12,16,09,17,0.30
2013,12,16,09,18,0.30
2013,12,16,09,19,0.40
2013,12,16,09,20,0.40
2013,12,16,09,21,0.40
2013,12,16,09,22,0.40
2013,12,16,09,23,0.50
2013,12,16,09,24,0.50
2013,12,16,09,25,0.60
2013,12,16,09,26,0.60
2013,12,16,09,27,0.70
2013,12,16,09,28,0.70
2013,12,16,09,29,0.80
2013,12,16,09,30,0.80
2013,12,16,09,31,0.90
2013,12,16,09,32,0.90
2013,12,16,09,33,0.90
2013,12,16,09,34,1.00
2013,12,16,09,35,1.00
2013,12,16,09,36,1.10
2013,12,16,09,37,1.10
2013,12,16,09,38,1.20
2013,12,16,09,39,1.30
2013,12,16,09,40,1.30
2013,12,16,09,41,1.30
2013,12,16,09,42,1.30
2013,12,16,09,43,1.30
2013,12,16,09,44,1.40
2013,12,16,09,45,1.40
2013,12,16,09,46,1.40
2013,12,16,09,47,1.50
2013,12,16,09,48,1.50
2013,12,16,09,49,1.50
2013,12,16,09,50,1.60
2013,12,16,09,51,1.70
2013,12,16,09,52,1.80
2013,12,16,09,53,1.90
2013,12,16,09,54,2.00
2013,12,16,09,55,2.00
2013,12,16,09,56,2.10
2013,12,16,09,57,2.20
2013,12,16,09,58,2.30
2013,12,16,09,59,2.40
2013,12,16,10,00,2.40
2013,12,16,10,01,2.50
2013,12,16,10,02,2.50
2013,12,16,10,03,2.60
2013,12,16,10,04,2.60
2013,12,16,10,05,2.60
2013,12,16,10,06,2.70
2013,12,16,10,07,2.70
2013,12,16,10,08,2.80
2013,12,16,10,09,2.90
2013,12,16,10,10,3.00
2013,12,16,10,11,3.10
2013,12,16,10,12,3.10
2013,12,16,10,13,3.20
2013,12,16,10,14,3.30
2013,12,16,10,15,3.30
2013,12,16,10,16,3.40
2013,12,16,10,17,3.50
2013,12,16,10,18,3.50
2013,12,16,10,19,3.50
2013,12,16,10,20,3.50
2013,12,16,10,21,3.50
2013,12,16,10,22,3.50
2013,12,16,10,23,3.50
2013,12,16,10,24,3.50
2013,12,16,10,25,3.50
2013,12,16,10,26,3.60
2013,12,16,10,27,3.60
2013,12,16,10,28,3.60
2013,12,16,10,29,3.70
2013,12,16,10,30,3.70
2013,12,16,10,31,3.70
2013,12,16,10,32,3.70
2013,12,16,10,33,3.70
2013,12,16,10,34,3.70
2013,12,16,10,35,3.70
2013,12,16,10,36,3.70
2013,12,16,10,37,3.70
2013,12,16,10,38,3.70
2013,12,16,10,39,3.70
2013,12,16,10,40,3.70
2013,12,16,10,41,3.80
2013,12,16,10,42,3.80
2013,12,16,10,43,3.80
2013,12,16,10,44,3.80
2013,12,16,10,45,3.80
2013,12,16,10,46,3.90
2013,12,16,10,47,3.90
2013,12,16,10,48,4.00
2013,12,16,10,49,4.00
2013,12,16,10,50,4.10
2013,12,16,10,51,4.20
2013,12,16,10,52,4.20
2013,12,16,10,53,4.30
2013,12,16,10,54,4.30
2013,12,16,10,55,4.40
2013,12,16,10,56,4.50
2013,12,16,10,57,4.50
2013,12,16,10,58,4.60
2013,12,16,10,59,4.70
2013,12,16,11,00,4.80
2013,12,16,11,01,4.90
2013,12,16,11,02,5.00
2013,12,16,11,03,5.00
2013,12,16,11,04,5.10
2013,12,16,11,05,5.20
2013,12,16,11,06,5.20
2013,12,16,11,07,5.30
2013,12,16,11,08,5.30
2013,12,16,11,09,5.40
2013,12,16,11,10,5.40
2013,12,16,11,11,5.40
2013,12,16,11,12,5.50
2013,12,16,11,13,5.50
2013,12,16,11,14,5.50
2013,12,16,11,15,5.50
2013,12,16,11,16,5.50
2013,12,16,11,17,5.60
2013,12,16,11,18,5.60
2013,12,16,11,19,5.70
2013,12,16,11,20,5.70
2013,12,16,11,21,5.80
2013,12,16,11,22,5.80
2013,12,16,11,23,5.90
2013,12,16,11,24,5.90
2013,12,16,11,25,6.00
2013,12,16,11,26,6.00
2013,12,16,11,27,6.10
2013,12,16,11,28,6.20
2013,12,16,11,29,6.20
2013,12,16,11,30,6.30
2013,12,16,11,31,6.30
2013,12,16,11,32,6.30
2013,12,16,11,33,6.40
2013,12,16,11,34,6.40
2013,12,16,11,35,6.40
2013,12,16,11,36,6.40
2013,12,16,11,37,6.40
2013,12,16,11,38,6.50
2013,12,16,11,39,6.50
2013,12,16,11,40,6.50
2013,12,16,11,41,6.50
2013,12,16,11,42,6.60
2013,12,16,11,43,6.60
2013,12,16,11,44,6.60
2013,12,16,11,45,6.60
2013,12,16,11,46,6.70
2013,12,16,11,47,6.70
2013,12,16,11,48,6.80
2013,12,16,11,49,6.80
2013,12,16,11,50,6.80
2013,12,16,11,51,6.90
2013,12,16,11,52,6.90
2013,12,16,11,53,6.90
2013,12,16,11,54,7.00
2013,12,16,11,55,7.00
2013,12,16,11,56,7.10
2013,12,16,11,57,7.10
2013,12,16,11,58,7.10
2013,12,16,11,59,7.10
2013,12,16,12,00,7.10
2013,12,16,12,01,7.20
2013,12,16,12,02,7.20
2013,12,16,12,03,7.20
2013,12,16,12,04,7.20
2013,12,16,12,05,7.20
2013,12,16,12,06,7.30
2013,12,16,12,07,7.40
2013,12,16,12,08,7.50
2013,12,16,12,09,7.50
2013,12,16,12,10,7.60
2013,12,16,12,11,7.60
2013,12,16,12,12,7.70
2013,12,16,12,13,7.80
2013,12,16,12,14,7.90
2013,12,16,12,15,7.90
2013,12,16,12,16,8.00
2013,12,16,12,17,8.10
2013,12,16,12,18,8.20
2013,12,16,12,19,8.20
2013,12,16,12,20,8.20
2013,12,16,12,21,8.20
2013,12,16,12,22,8.30
2013,12,16,12,23,8.40
2013,12,16,12,24,8.50
2013,12,16,12,25,8.50
2013,12,16,12,26,8.50
2013,12,16,12,27,8.50
2013,12,16,12,28,8.50
2013,12,16,12,29,8.50
2013,12,16,12,30,8.60
2013,12,16,12,31,8.60
2013,12,16,12,32,8.60
2013,12,16,12,33,8.50
2013,12,16,12,34,8.50
2013,12,16,12,35,8.50
2013,12,16,12,36,8.50
2013,12,16,12,37,8.60
2013,12,16,12,38,8.60
2013,12,16,12,39,8.60
2013,12,16,12,40,8.70
2013,12,16,12,41,8.70
2013,12,16,12,42,8.80
2013,12,16,12,43,8.80
2013,12,16,12,44,8.80
2013,12,16,12,45,8.80
2013,12,16,12,46,8.80
2013,12,16,12,47,8.80
2013,12,16,12,48,8.80
2013,12,16,12,49,8.90
2013,12,16,12,50,8.90
2013,12,16,12,51,8.90
2013,12,16,12,52,8.90
2013,12,16,12,53,8.80
2013,12,16,12,54,8.80
2013,12,16,12,55,8.70
2013,12,16,12,56,8.60
2013,12,16,12,57,8.60
2013,12,16,12,58,8.60
2013,12,16,12,59,8.60
2013,12,16,13,00,8.50
2013,12,16,13,01,8.50
2013,12,16,13,02,8.50
2013,12,16,13,03,8.60
2013,12,16,13,04,8.60
2013,12,16,13,05,8.60
2013,12,16,13,06,8.60
2013,12,16,13,07,8.50
2013,12,16,13,08,8.50
2013,12,16,13,09,8.50
2013,12,16,13,10,8.50
2013,12,16,13,11,8.50
2013,12,16,13,12,8.60
2013,12,16,13,13,8.60
2013,12,16,13,14,8.70
2013,12,16,13,15,8.70
2013,12,16,13,16,8.80
2013,12,16,13,17,8.80
2013,12,16,13,18,8.80
2013,12,16,13,19,8.90
2013,12,16,13,20,8.90
2013,12,16,13,21,9.00
2013,12,16,13,22,9.00
2013,12,16,13,23,9.00
2013,12,16,13,24,8.90
2013,12,16,13,25,9.00
2013,12,16,13,26,9.10
2013,12,16,13,27,9.10
2013,12,16,13,28,9.20
2013,12,16,13,29,9.20
2013,12,16,13,30,9.30
2013,12,16,13,31,9.30
2013,12,16,13,32,9.30
2013,12,16,13,33,9.40
2013,12,16,13,34,9.40
2013,12,16,13,35,9.50
2013,12,16,13,36,9.60
2013,12,16,13,37,9.60
2013,12,16,13,38,9.60
2013,12,16,13,39,9.60
2013,12,16,13,40,9.60
2013,12,16,13,41,9.60
2013,12,16,13,42,9.60
2013,12,16,13,43,9.60
2013,12,16,13,44,9.60
2013,12,16,13,45,9.60
2013,12,16,13,46,9.60
2013,12,16,13,47,9.60
2013,12,16,13,48,9.60
2013,12,16,13,49,9.60
2013,12,16,13,50,9.70
2013,12,16,13,51,9.70
2013,12,16,13,52,9.60
2013,12,16,13,53,9.70
2013,12,16,13,54,9.70
2013,12,16,13,55,9.70
2013,12,16,13,56,9.70
2013,12,16,13,57,9.70
2013,12,16,13,58,9.80
2013,12,16,13,59,9.80
2013,12,16,14,00,9.80
2013,12,16,14,01,9.80
2013,12,16,14,02,9.80
2013,12,16,14,03,9.90
2013,12,16,14,04,9.90
2013,12,16,14,05,9.90
2013,12,16,14,06,9.90
2013,12,16,14,07,9.90
2013,12,16,14,08,9.90
2013,12,16,14,09,9.90
2013,12,16,14,10,9.90
2013,12,16,14,11,9.80
2013,12,16,14,12,9.70
2013,12,16,14,13,9.70
2013,12,16,14,14,9.60
2013,12,16,14,15,9.50
2013,12,16,14,16,9.40
2013,12,16,14,17,9.40
2013,12,16,14,18,9.30
2013,12,16,14,19,9.30
2013,12,16,14,20,9.30
2013,12,16,14,21,9.30
2013,12,16,14,22,9.30
2013,12,16,14,23,9.30
2013,12,16,14,24,9.30
2013,12,16,14,25,9.30
2013,12,16,14,26,9.20
2013,12,16,14,27,9.20
2013,12,16,14,28,9.20
2013,12,16,14,29,9.30
2013,12,16,14,30,9.30
2013,12,16,14,31,9.30
2013,12,16,14,32,9.30
2013,12,16,14,33,9.30
2013,12,16,14,34,9.30
2013,12,16,14,35,9.30
2013,12,16,14,36,9.30
2013,12,16,14,37,9.20
2013,12,16,14,38,9.20
2013,12,16,14,39,9.20
2013,12,16,14,40,9.20
2013,12,16,14,41,9.20
2013,12,16,14,42,9.20
2013,12,16,14,43,9.20
2013,12,16,14,44,9.30
2013,12,16,14,45,9.30
2013,12,16,14,46,9.30
2013,12,16,14,47,9.30
2013,12,16,14,48,9.40
2013,12,16,14,49,9.40
2013,12,16,14,50,9.40
2013,12,16,14,51,9.30
2013,12,16,14,52,9.30
2013,12,16,14,53,9.20
2013,12,16,14,54,9.20
2013,12,16,14,55,9.20
2013,12,16,14,56,9.20
2013,12,16,14,57,9.20
2013,12,16,14,58,9.10
2013,12,16,14,59,9.10
2013,12,16,15,00,9.10
2013,12,16,15,01,9.10
2013,12,16,15,02,9.10
2013,12,16,15,03,9.00
2013,12,16,15,04,9.00
2013,12,16,15,05,9.00
2013,12,16,15,06,9.00
2013,12,16,15,07,9.00
2013,12,16,15,08,8.90
2013,12,16,15,09,8.90
2013,12,16,15,10,9.00
2013,12,16,15,11,9.00
2013,12,16,15,12,9.10
2013,12,16,15,13,9.10
2013,12,16,15,14,9.10
2013,12,16,15,15,9.10
2013,12,16,15,16,9.20
2013,12,16,15,17,9.10
2013,12,16,15,18,9.10
2013,12,16,15,19,9.10
2013,12,16,15,20,9.00
2013,12,16,15,21,9.00
2013,12,16,15,22,8.90
2013,12,16,15,23,8.90
2013,12,16,15,24,8.90
2013,12,16,15,25,8.80
2013,12,16,15,26,8.80
2013,12,16,15,27,8.80
2013,12,16,15,28,8.80
2013,12,16,15,29,8.70
2013,12,16,15,30,8.70
2013,12,16,15,31,8.70
2013,12,16,15,32,8.60
2013,12,16,15,33,8.60
2013,12,16,15,34,8.50
2013,12,16,15,35,8.50
2013,12,16,15,36,8.40
2013,12,16,15,37,8.40
2013,12,16,15,38,8.40
2013,12,16,15,39,8.40
2013,12,16,15,40,8.40
2013,12,16,15,41,8.40
2013,12,16,15,42,8.30
2013,12,16,15,43,8.30
2013,12,16,15,44,8.30
2013,12,16,15,45,8.30
2013,12,16,15,46,8.30
2013,12,16,15,47,8.20
2013,12,16,15,48,8.20
2013,12,16,15,49,8.20
2013,12,16,15,50,8.20
2013,12,16,15,51,8.10
2013,12,16,15,52,8.10
2013,12,16,15,53,8.10
2013,12,16,15,54,8.10
2013,12,16,15,55,8.00
2013,12,16,15,56,8.00
2013,12,16,15,57,8.00
2013,12,16,15,58,7.90
2013,12,16,15,59,7.90
2013,12,16,16,00,7.90
2013,12,16,16,01,7.80
2013,12,16,16,02,7.80
2013,12,16,16,03,7.80
2013,12,16,16,04,7.80
2013,12,16,16,05,7.70
2013,12,16,16,06,7.70
2013,12,16,16,07,7.60
2013,12,16,16,08,7.60
2013,12,16,16,09,7.50
2013,12,16,16,10,7.40
2013,12,16,16,11,7.40
2013,12,16,16,12,7.30
2013,12,16,16,13,7.30
2013,12,16,16,14,7.20
2013,12,16,16,15,7.20
2013,12,16,16,16,7.20
2013,12,16,16,17,7.10
2013,12,16,16,18,7.10
2013,12,16,16,19,7.00
2013,12,16,16,20,6.90
2013,12,16,16,21,6.90
2013,12,16,16,22,6.90
2013,12,16,16,23,6.80
2013,12,16,16,24,6.80
2013,12,16,16,25,6.80
2013,12,16,16,26,6.70
2013,12,16,16,27,6.70
2013,12,16,16,28,6.60
2013,12,16,16,29,6.60
2013,12,16,16,30,6.60
2013,12,16,16,31,6.50
2013,12,16,16,32,6.50
2013,12,16,16,33,6.40
2013,12,16,16,34,6.40
2013,12,16,16,35,6.30
2013,12,16,16,36,6.30
2013,12,16,16,37,6.30
2013,12,16,16,38,6.30
2013,12,16,16,39,6.30
2013,12,16,16,40,6.30
2013,12,16,16,41,6.20
2013,12,16,16,42,6.20
2013,12,16,16,43,6.20
2013,12,16,16,44,6.20
2013,12,16,16,45,6.20
2013,12,16,16,46,6.20
2013,12,16,16,47,6.10
2013,12,16,16,48,6.10
2013,12,16,16,49,6.10
2013,12,16,16,50,6.10
2013,12,16,16,51,6.10
2013,12,16,16,52,6.10
2013,12,16,16,53,6.10
2013,12,16,16,54,6.00
2013,12,16,16,55,6.00
2013,12,16,16,56,6.00
2013,12,16,16,57,6.00
2013,12,16,16,58,6.00
2013,12,16,16,59,6.00
2013,12,16,17,00,5.90
2013,12,16,17,01,5.90
2013,12,16,17,02,5.90
2013,12,16,17,03,5.90
2013,12,16,17,04,5.90
2013,12,16,17,05,5.90
2013,12,16,17,06,5.90
2013,12,16,17,07,5.90
2013,12,16,17,08,5.90
2013,12,16,17,09,5.90
2013,12,16,17,10,5.90
2013,12,16,17,11,5.90
2013,12,16,17,12,5.90
2013,12,16,17,13,5.90
2013,12,16,17,14,5.90
2013,12,16,17,15,5.90
2013,12,16,17,16,5.90
2013,12,16,17,17,5.90
2013,12,16,17,18,5.80
2013,12,16,17,19,5.80
2013,12,16,17,20,5.80
2013,12,16,17,21,5.80
2013,12,16,17,22,5.80
2013,12,16,17,23,5.80
2013,12,16,17,24,5.80
2013,12,16,17,25,5.80
2013,12,16,17,26,5.80
2013,12,16,17,27,5.80
2013,12,16,17,28,5.80
2013,12,16,17,29,5.70
2013,12,16,17,30,5.70
2013,12,16,17,31,5.70
2013,12,16,17,32,5.70
2013,12,16,17,33,5.70
2013,12,16,17,34,5.70
2013,12,16,17,35,5.70
2013,12,16,17,36,5.70
2013,12,16,17,37,5.70
2013,12,16,17,38,5.70
2013,12,16,17,39,5.70
2013,12,16,17,40,5.70
2013,12,16,17,41,5.60
2013,12,16,17,42,5.60
2013,12,16,17,43,5.60
2013,12,16,17,44,5.60
2013,12,16,17,45,5.60
2013,12,16,17,46,5.60
2013,12,16,17,47,5.60
2013,12,16,17,48,5.60
2013,12,16,17,49,5.60
2013,12,16,17,50,5.60
2013,12,16,17,51,5.60
2013,12,16,17,52,5.60
2013,12,16,17,53,5.60
2013,12,16,17,54,5.60
2013,12,16,17,55,5.60
2013,12,16,17,56,5.60
2013,12,16,17,57,5.60
2013,12,16,17,58,5.60
2013,12,16,17,59,5.60
2013,12,16,18,00,5.60
2013,12,16,18,01,5.60
2013,12,16,18,02,5.60
2013,12,16,18,03,5.60
2013,12,16,18,04,5.50
2013,12,16,18,05,5.50
2013,12,16,18,06,5.50
2013,12,16,18,07,5.40